STARLINK-5656, 55451

Orbit data source: Space-Track

STARLINK-5656, 55451 is a payload satellite owned by SpaceX/Seattle (US) in LEO that was launched on Thu, 02 Feb 2023 UTC via an FALCON 9 launch vehicle from the Air Force Eastern Test Range (AFETR). Payload-class satellites include a variety of spacecraft equipped with specific instruments for various scientific and technological missions. These include communications satellites like Starlink; space stations such as the ISS; scientific satellites like the Hubble; Earth observation satellites from companies like Planet Labs, Umbra, and HawkEye 360; GPS; miniature CubeSats for education and research; and military/defense satellites.

Loading next visibility...
Identifier
55451, 2023-015C
Orbit
LEO
Country
Flag of USUS
Related business
Manufacturer
SpaceX/Seattle
Mission
Operational Commercial Communications
Bus & Motor
STARLINK, Unknown motor
Mass
305 kg wet, ~290 kg dry
Launch date (UTC)
2023-02-02 (4 years ago)
Launch vehicle
FALCON 9
Launch site
Air Force Eastern Test Range (AFETR)
Object type
Payload
Rocket body
Debris
Shape & HBR
Box + 1 Pan, 10.1 m
Radar Cross Section
13.562 m², Large (>1 m²)

Expand to show TLE details & history
Last TLE update: 7 hours ago

TLE from 7 hours ago
0 STARLINK-5656
1 55451U 23015C   26258.60983159  .00000283  00000-0  19840-4 0  9994
2 55451  43.0055 336.5180 0001966 294.8934  65.1713 15.27575522199762
Epoch: 2026-09-15T14:38Z
TLE epoch observation values (Epoch: 2026-09-15T14:38:09.449Z)
Latitude
-0.00003°
Longitude
122.40528°
Altitude
482.272 km
Speed
7.626 km/s
True Right ascension
22h 26m 04s
True Declination
0° 00' 00"
Sunlit
Object was in full shadow at epoch
Visualization orbit readout
Latitude
Unknown
Longitude
Unknown
Altitude
Unknown
Speed
Unknown
Apparent Right ascension
Unknown
Apparent Declination
Unknown
Sunlit
N/A
Visualization observer readout
Local Sidereal Time
13:56:31
Azimuth
Unknown
Elevation
Unknown
Doppler factor
Unknown
Orbital elements
Apogee altitude
486.356 km
Perigee altitude
483.657 km
Semi-major axis
6,863.144 km
Eccentricity
0.0002
Inclination
43.0055°
RAAN
336.518°
Arg. of periapsis
294.8934°
True anomaly
65.19175°
Mean anomaly
65.1713°
Eccentric anomaly
65.18152°
Mean motion
3.81732 °/min
Orbital period
94.31 mins
BSTAR
0.00001984
Loading maneuver chart data...
Computing Atmospheric mass density...
Loading historical data...
Loading historical data...
Loading historical data...
Loading historical data...
Loading historical data...
Loading historical data...
Loading historical data...

Documentation

Showing up to 5 results
|